This demonstration page uses our WeatherBlox Daily Observations layout. Learn more.

Left ArrowRight Arrow

Hourly Observations for May 12, 2019

Temp ( °F °C ) Dew Point ( °F °C ) Humidity (%) Winds ( mph kmh ) Pressure ( in mb ) Visibility ( mi km ) Precip ( " mm )
12:39 am 00:39 Cloudy with Light Rain 51 10.6 49 9.4 92 92 NE 5 7 29.88 1012 10 16 0.01 0.25
12:52 am 00:52 Cloudy with Light Rain 51 10.6 49 9.4 92 92 NE 3 6 29.86 1011 10 16 0.01 0.25
1:52 am 01:52 Cloudy 51 10.6 49 9.4 92 92 Calm 29.84 1011 10 16 0.00 0.03
2:16 am 02:16 Cloudy 51 10.6 48 8.9 89 89 NE 3 6 29.84 1010 10 16 0.00 0.00
2:52 am 02:52 Cloudy 51 10.6 49 9.4 92 92 N 3 6 29.82 1010 10 16 0.00 0.00
3:52 am 03:52 Cloudy 51 10.6 48 8.9 89 89 Calm 29.80 1009 10 16 0.00 0.00
4:24 am 04:24 Cloudy 51 10.6 48 8.9 89 89 N 3 6 29.83 1010 10 16 0.00 0.00
4:31 am 04:31 Cloudy 51 10.6 48 8.9 89 89 Calm 29.83 1010 10 16 0.00 0.00
4:40 am 04:40 Cloudy 51 10.6 48 8.9 89 89 N 3 6 29.83 1010 10 16 0.00 0.00
4:52 am 04:52 Cloudy 51 10.6 48 8.9 89 89 Calm 29.82 1010 10 16 0.00 0.00
5:10 am 05:10 Cloudy 51 10.6 48 8.9 89 89 Calm 29.84 1010 10 16 0.00 0.00
5:44 am 05:44 Cloudy 51 10.6 48 8.9 89 89 SSW 3 6 29.84 1010 10 16 0.00 0.00
5:52 am 05:52 Cloudy 51 10.6 48 8.9 89 89 Calm 29.83 1010 10 16 0.00 0.00
6:52 am 06:52 Cloudy 51 10.6 48 8.9 89 89 Calm 29.83 1010 10 16 0.00 0.00
7:22 am 07:22 Cloudy 52 11.1 49 9.4 89 89 NW 5 7 29.87 1011 10 16 0.00 0.00
7:44 am 07:44 Cloudy 52 11.1 49 9.4 89 89 NNW 5 7 29.87 1011 10 16 0.00 0.00
7:52 am 07:52 Cloudy 52 11.1 49 9.4 89 89 NNW 3 6 29.85 1011 10 16 0.00 0.00
8:06 am 08:06 Cloudy 53 11.7 49 9.4 86 86 Calm 29.84 1011 10 16 0.00 0.00
8:36 am 08:36 Mostly Cloudy 55 12.8 49 9.4 80 80 NNE 3 6 29.84 1010 10 16 0.00 0.00
8:52 am 08:52 Mostly Cloudy 55 12.8 48 8.9 77 77 Calm 29.84 1011 10 16 0.00 0.00
9:34 am 09:34 Cloudy 55 12.8 48 8.9 77 77 Calm 29.85 1011 10 16 0.00 0.00
9:52 am 09:52 Cloudy 56 13.3 49 9.4 77 77 NW 3 6 29.85 1011 10 16 0.00 0.00
10:52 am 10:52 Cloudy 57 13.9 49 9.4 74 74 Calm 29.83 1010 10 16 0.00 0.00
10:59 am 10:59 Cloudy 57 13.9 49 9.4 74 74 Calm 29.83 1010 10 16 0.00 0.00
11:27 am 11:27 Cloudy 58 14.4 49 9.4 72 72 Calm 29.83 1010 10 16 0.00 0.00
11:34 am 11:34 Cloudy 58 14.4 48 8.9 70 70 Calm 29.84 1011 10 16 0.00 0.00
11:52 am 11:52 Cloudy 58 14.4 48 8.9 70 70 VRB 3 6 29.84 1010 10 16 0.00 0.00
12:37 pm 12:37 Cloudy 59 15 48 8.9 67 67 W 5 7 29.83 1010 10 16 0.00 0.00
12:48 pm 12:48 Cloudy 59 15 48 9 68 68 Calm 29.83 1010 10 16 0.00 0.00
12:52 pm 12:52 Cloudy 60 15.6 49 9.4 67 67 VRB 3 6 29.83 1010 10 16 0.00 0.00
1:52 pm 13:52 Mostly Cloudy 62 16.7 50 10 65 65 SSW 7 11 29.81 1009 10 16 0.00 0.00
2:52 pm 14:52 Partly Cloudy 66 18.9 49 9.4 54 54 W 8 13 29.78 1009 10 16 0.00 0.00
3:52 pm 15:52 Partly Cloudy 65 18.3 52 11.1 63 63 WNW 9 15 29.78 1008 10 16 0.00 0.03
4:52 pm 16:52 Mostly Cloudy 65 18.3 49 9.4 56 56 NW 8 13 29.78 1008 10 16 0.00 0.00
5:52 pm 17:52 Mostly Cloudy 66 18.9 47 8.3 50 50 NW 10 17 29.78 1009 10 16 0.00 0.03
6:32 pm 18:32 Cloudy 60 15.6 51 10.6 72 72 N 9 15 29.80 1009 10 16 0.00 0.03
6:52 pm 18:52 Cloudy 60 15.6 52 11.1 75 75 N 12 19 29.82 1010 10 16 0.00 0.03
7:52 pm 19:52 Partly Cloudy 57 13.9 48 8.9 72 72 NE 6 9 29.84 1011 10 16 0.00 0.00
8:52 pm 20:52 Clear 55 12.8 47 8.3 74 74 Calm 29.85 1011 10 16 0.00 0.00
9:52 pm 21:52 Clear 50 10 46 7.8 86 86 S 3 6 29.87 1012 10 16 0.00 0.00
10:52 pm 22:52 Clear 49 9.4 45 7.2 86 86 Calm 29.89 1012 10 16 0.00 0.00
11:52 pm 23:52 Clear 47 8.3 45 7.2 93 93 Calm 29.90 1013 10 16 0.00 0.00

Powered by AerisWeather